GFSSW_925_thetae_273.txt.gz
Theta_e
306 303 302 300 300 299 299 299 299 298 299 298 297 298 298 298 298 299 302 305 303 302 303 305 307 305 305 306 310 321 325 327 328 329 329 317 318 312 307 309 310 310 307 308 306
305 303 303 299 300 299 302 300 298 298 299 299 298 297 299 299 299 300 301 301 299 301 304 309 307 304 303 309 315 321 323 326 320 317 316 317 317 311 312 310 309 306 304 304 304
305 304 299 297 297 297 299 299 299 299 298 298 297 298 299 299 304 301 300 299 300 302 303 307 306 306 307 312 316 318 322 318 312 311 308 314 315 310 311 312 309 307 303 302 302
305 299 298 297 297 297 297 298 297 297 297 298 297 298 299 301 302 300 299 300 300 302 306 306 307 312 314 314 315 317 316 312 310 305 306 310 305 312 308 311 308 306 303 302 301
303 302 299 299 298 298 298 298 298 297 297 298 297 298 299 299 299 299 299 300 301 303 303 306 309 311 313 314 314 315 314 308 305 304 304 303 306 308 308 306 305 302 303 303 302
303 301 301 301 301 299 298 298 298 297 297 298 298 299 299 298 299 298 300 300 301 301 303 305 307 307 311 309 313 307 308 307 304 304 303 304 305 306 306 305 306 302 300 301 302
307 306 307 308 304 299 299 298 297 297 297 297 297 299 298 298 298 298 300 300 300 301 302 303 301 307 306 309 304 306 308 308 304 303 304 301 308 303 303 303 304 303 299 299 301
312 312 312 312 304 297 297 298 297 297 297 297 298 299 296 298 298 298 299 300 300 300 301 301 302 303 306 303 303 306 306 311 306 302 302 304 314 309 303 302 301 299 299 298 298
314 314 314 313 309 299 299 299 297 297 297 298 298 298 298 297 298 298 299 301 300 300 299 300 302 303 303 305 307 307 308 309 308 302 301 302 306 305 301 301 301 298 298 298 297
314 314 314 313 312 301 300 302 299 298 298 297 297 298 297 298 298 298 299 299 301 301 302 302 302 302 302 304 306 307 307 306 306 302 301 301 301 302 301 299 299 298 297 297 298
313 313 313 314 311 303 304 304 298 303 301 298 298 297 298 298 297 299 299 299 300 301 301 302 300 299 301 302 302 302 302 301 303 301 301 300 300 301 301 299 300 301 298 298 299
313 313 313 313 308 305 306 300 298 297 300 300 298 297 297 297 298 298 299 300 300 299 301 300 298 301 301 301 301 301 301 300 302 301 300 301 300 302 303 303 303 302 301 301 299
312 313 313 313 308 307 300 298 297 300 300 302 298 298 297 297 297 299 299 299 300 301 299 298 300 300 301 301 301 301 301 302 303 303 301 300 302 303 305 303 303 303 302 301 301
309 311 313 313 311 311 301 301 298 299 299 304 298 298 298 299 298 298 298 299 299 300 300 300 299 299 299 301 300 301 301 302 302 302 301 303 302 303 305 306 304 302 301 301 300
306 308 310 312 312 309 305 302 299 302 307 303 297 297 298 298 299 299 298 298 299 299 299 299 297 299 300 300 300 301 300 302 302 302 303 303 302 302 303 307 307 303 301 300 299
301 302 304 311 311 312 307 302 303 304 303 301 298 298 298 298 299 299 299 298 299 299 299 299 297 298 299 297 299 299 300 302 302 302 303 302 303 302 307 308 306 305 303 301 299
298 299 301 306 312 309 309 303 314 306 303 300 296 298 299 299 299 299 299 299 298 295 299 299 297 296 297 297 298 300 301 307 308 304 306 301 303 304 305 305 305 304 303 300 299
297 297 297 302 310 311 308 309 320 306 302 303 299 299 298 298 298 298 299 298 298 301 299 299 299 295 295 297 298 298 302 305 305 316 314 301 305 308 305 304 304 302 301 300 299
295 295 296 301 305 308 307 314 318 315 312 304 298 299 295 300 299 298 296 297 299 298 301 302 305 296 295 296 297 298 300 301 303 297 304 303 303 305 305 303 302 302 300 299 299
294 295 295 298 306 305 307 314 313 313 303 303 306 300 296 296 296 297 298 297 301 298 298 303 301 296 295 295 296 298 298 301 300 298 305 307 305 306 308 305 302 302 300 299 298
293 297 299 302 304 302 308 307 308 309 310 309 312 309 305 306 298 297 299 301 300 300 298 295 301 298 295 294 296 296 298 299 302 306 309 310 308 302 305 305 304 301 300 299 298
294 292 299 299 301 301 305 301 305 309 310 311 308 312 309 306 303 303 301 303 299 298 300 298 298 297 296 295 294 296 298 299 303 303 304 308 306 304 306 304 302 303 302 299 298
293 292 296 296 302 303 302 302 305 307 306 305 307 308 311 314 312 306 304 303 299 298 300 301 299 295 298 296 293 293 296 299 300 301 301 303 305 301 304 305 304 304 303 301 300
292 291 295 294 298 300 300 302 303 302 304 305 306 304 307 310 312 313 309 301 298 300 302 300 304 298 305 302 294 292 294 297 297 297 302 305 305 305 304 304 303 304 303 302 301
292 289 289 290 297 297 298 300 300 301 302 302 306 307 308 310 311 312 309 307 299 300 299 301 304 303 303 304 297 296 292 296 299 301 302 304 303 304 304 303 303 301 301 300 300
292 292 287 292 287 293 295 300 299 299 299 300 304 306 305 308 308 308 308 307 307 298 301 298 302 300 302 301 303 304 301 296 298 299 300 302 301 302 301 301 301 301 301 300 300
290 291 292 290 289 291 289 293 295 293 295 300 300 301 301 301 300 301 304 305 305 301 300 298 301 304 310 304 302 305 304 302 299 297 300 301 302 301 301 300 302 303 303 303 299

GFSSW_925_thetae_276.txt.gz
Theta_e
304 300 304 304 300 300 299 300 300 298 298 298 298 298 298 299 299 299 300 304 305 302 300 304 307 305 304 305 307 316 323 325 325 326 326 319 318 310 308 310 310 308 308 308 306
306 301 298 297 297 297 298 299 298 298 298 298 298 297 299 300 301 300 300 302 301 299 303 308 307 303 302 305 310 320 322 323 321 316 316 314 316 311 311 309 309 306 303 304 304
302 299 299 298 298 297 297 298 298 298 298 298 298 297 298 300 304 302 301 300 299 300 303 306 307 304 304 308 314 316 321 319 314 311 308 310 315 310 311 309 308 306 303 300 301
304 300 300 301 301 300 299 298 298 298 297 297 298 297 298 301 299 300 299 299 300 301 304 306 305 305 313 311 312 316 314 315 311 306 307 310 302 309 308 312 309 305 303 301 300
305 306 308 309 311 303 301 299 298 298 297 297 298 297 299 298 297 299 299 300 301 303 305 304 307 311 313 313 313 314 314 308 305 304 304 303 305 306 306 306 302 303 302 302 301
311 312 313 313 313 300 297 297 297 298 297 297 297 298 299 296 298 299 299 300 301 301 302 303 304 305 311 311 312 308 307 307 304 304 303 304 305 304 307 305 304 302 302 302 301
313 314 313 313 313 304 299 298 298 298 297 297 297 299 298 296 298 298 299 299 300 301 302 303 302 303 306 309 305 305 309 307 306 303 304 301 308 303 305 304 305 305 300 301 302
313 313 313 314 313 305 300 300 301 297 296 297 298 299 294 298 297 298 299 300 300 300 301 301 302 303 304 303 304 307 306 311 308 302 303 306 313 311 304 301 302 302 300 298 300
313 313 313 313 313 305 302 301 300 297 297 298 299 297 296 297 297 298 298 300 300 299 300 300 302 303 303 305 306 305 308 308 310 302 301 304 309 308 300 299 300 299 297 298 297
313 312 312 313 313 307 307 303 300 298 297 298 297 297 296 296 298 297 298 299 300 300 300 301 300 301 301 304 311 306 307 307 307 303 301 300 302 303 302 300 298 298 297 296 298
312 312 312 313 313 308 308 300 298 300 299 296 296 296 297 297 297 297 298 299 299 300 298 300 298 299 302 302 303 302 303 301 301 301 301 300 301 302 302 298 298 299 298 298 298
309 310 312 313 313 308 306 298 297 298 299 299 298 297 297 297 298 297 298 298 299 298 299 297 297 298 300 300 301 301 301 300 301 301 300 300 300 302 302 301 301 301 301 300 300
304 306 310 311 313 310 302 301 298 299 298 300 298 297 296 296 296 296 297 297 298 298 298 297 299 299 300 300 300 300 300 300 302 302 300 299 301 302 303 301 301 302 302 301 301
301 302 303 309 311 311 304 304 299 299 296 304 298 298 297 297 296 297 298 298 298 298 298 297 298 299 299 300 299 299 299 301 302 302 300 302 301 302 304 304 304 303 300 301 299
298 299 300 302 307 310 307 305 300 300 311 304 297 297 297 297 297 297 297 298 297 298 298 298 297 298 299 298 298 299 300 301 301 301 301 301 301 300 302 305 306 303 301 299 298
297 298 298 298 304 311 305 303 303 311 310 301 296 296 297 297 298 297 298 298 298 298 298 297 296 297 298 297 298 298 300 301 301 300 301 300 300 299 303 305 307 305 304 301 299
295 295 296 297 303 304 305 306 313 319 304 302 296 297 297 297 297 298 298 298 297 294 297 298 297 296 296 297 297 299 299 303 303 299 303 301 301 302 303 304 304 306 303 302 298
294 294 293 294 294 304 306 309 316 314 303 302 299 297 297 297 297 297 297 296 295 299 295 297 298 295 295 296 297 298 298 303 301 308 308 301 304 306 304 303 302 302 302 300 298
294 293 292 293 294 299 308 312 311 311 311 303 298 298 293 299 298 296 296 296 297 297 299 297 301 295 295 295 296 297 300 301 302 296 302 302 301 302 304 302 302 301 299 299 299
294 293 292 295 296 302 305 308 306 309 307 301 308 303 297 295 298 297 297 296 299 297 295 299 301 296 295 295 295 297 297 300 299 297 301 304 303 304 306 305 301 301 299 298 298
293 292 294 298 299 301 304 305 303 306 311 310 312 310 304 303 299 299 301 299 297 299 298 296 300 297 295 294 296 296 298 297 298 302 304 307 306 302 303 304 302 300 299 298 297
292 289 293 294 299 301 302 300 303 303 305 308 309 312 314 310 303 307 306 303 299 299 302 301 302 296 295 294 294 295 298 299 300 301 303 307 306 304 302 303 302 303 301 299 297
292 289 292 294 294 299 301 302 302 303 303 305 308 309 310 312 310 304 303 301 299 300 302 302 303 298 297 295 292 292 295 298 299 300 301 303 305 301 303 304 303 304 303 300 298
291 291 284 293 291 295 296 299 301 301 302 303 303 305 306 310 311 309 309 304 299 301 304 304 305 307 308 300 294 292 291 297 297 297 303 304 304 305 303 303 302 302 303 301 299
291 291 287 282 287 295 295 296 297 297 297 300 302 302 303 305 306 308 308 300 299 302 300 304 305 306 307 302 296 297 292 296 298 301 301 303 301 301 301 301 301 300 300 300 300
289 290 290 286 287 290 290 293 293 294 296 297 298 298 300 303 304 306 306 308 309 300 300 300 307 303 307 306 304 305 304 295 298 299 299 300 299 301 300 298 298 299 299 299 299
289 289 289 289 285 287 288 291 291 292 292 294 294 294 295 298 298 297 297 300 302 303 302 300 303 302 309 307 307 305 305 305 301 297 299 300 300 301 300 300 301 302 300 300 299

GFSSW_925_thetae_279.txt.gz
Theta_e
301 298 297 298 297 297 297 298 299 298 298 298 298 299 298 299 299 300 299 300 303 305 300 302 307 305 304 304 305 314 320 325 328 326 326 320 320 311 310 314 312 311 310 306 306
302 299 299 299 299 299 298 298 298 299 299 299 300 299 298 299 300 303 300 300 304 302 300 306 306 302 302 304 306 318 320 323 322 319 317 311 314 314 310 309 309 307 304 303 304
302 304 306 307 310 309 305 302 299 299 299 300 299 299 298 299 301 300 301 300 301 300 300 306 306 303 303 305 309 313 321 319 316 311 308 309 311 308 309 310 309 310 305 301 300
310 311 312 312 312 312 306 301 302 300 299 298 299 298 298 300 298 300 299 299 299 300 303 306 305 305 308 309 311 316 315 316 314 308 308 310 304 307 307 313 310 306 303 300 301
313 313 313 313 313 313 308 299 297 298 300 301 299 298 299 297 296 299 299 299 300 301 304 304 305 309 312 311 312 314 312 311 307 305 304 304 305 307 306 306 304 304 301 301 302
313 313 313 313 314 313 305 301 300 299 298 301 299 300 298 296 298 299 298 299 300 301 302 303 305 305 305 310 312 309 310 308 306 304 303 304 305 305 308 306 304 301 301 301 301
313 313 312 313 313 313 306 303 302 301 298 298 301 301 298 295 297 298 299 299 300 300 301 302 303 305 306 309 304 305 308 309 307 304 304 300 307 303 308 305 304 302 300 301 301
313 313 313 312 313 313 308 307 303 301 297 297 301 301 294 297 297 297 298 299 299 299 300 301 301 303 304 304 304 307 306 311 308 303 304 306 309 310 303 303 305 302 301 300 301
312 312 312 312 312 313 310 307 300 297 297 300 301 296 295 297 297 297 298 299 299 299 299 299 301 303 302 305 306 305 309 307 309 302 302 304 309 309 300 300 300 300 300 301 300
309 309 309 311 312 312 310 307 300 298 298 300 297 295 296 296 297 297 297 299 299 299 299 300 299 301 300 304 310 307 305 306 308 304 301 300 302 306 304 300 299 297 296 297 300
304 305 306 308 311 311 310 303 303 302 297 296 296 296 296 297 297 296 298 298 298 299 298 299 299 300 304 302 304 303 305 305 302 301 302 301 301 303 303 299 297 299 299 298 299
301 302 302 306 310 310 308 299 298 299 300 299 298 295 297 297 296 296 298 297 297 296 297 297 298 298 299 299 302 302 301 302 300 300 300 299 299 300 301 300 300 301 301 300 300
299 299 300 300 306 309 308 302 300 299 298 301 299 298 296 296 296 295 296 296 297 295 296 295 297 297 296 298 299 298 299 300 301 301 299 299 301 301 301 300 300 300 302 301 300
296 297 298 299 306 305 308 302 300 299 297 305 299 297 296 295 296 296 297 297 297 296 295 296 296 299 298 298 298 297 297 299 301 300 298 301 300 301 302 302 302 302 301 300 299
296 295 296 296 298 305 306 303 300 302 319 306 297 296 296 297 297 296 297 297 297 296 297 298 296 297 298 298 297 298 299 300 300 299 299 300 301 299 300 302 303 303 300 299 299
295 295 295 295 294 298 302 300 304 313 317 304 295 296 297 296 297 296 296 297 297 297 297 297 295 296 297 296 297 297 300 301 299 298 297 298 299 302 300 302 305 305 303 302 298
296 294 295 294 294 294 294 304 312 315 305 303 296 296 296 296 297 297 297 297 297 295 297 298 296 296 296 296 297 298 297 299 297 295 300 298 299 301 301 302 303 304 303 302 300
296 296 295 293 292 292 295 306 311 302 307 301 297 296 296 297 296 297 296 296 295 297 295 297 297 295 294 296 298 297 298 300 298 302 303 300 301 302 301 301 302 301 301 300 300
294 293 293 293 292 293 296 304 303 306 306 305 297 298 293 297 298 297 296 296 297 296 300 296 298 295 295 295 296 297 300 299 301 294 301 302 301 300 302 302 302 301 300 300 300
292 292 292 292 297 294 298 302 301 304 307 299 307 300 301 295 298 298 298 297 298 297 297 299 301 295 294 295 295 296 297 300 298 296 299 301 302 302 303 304 303 301 300 298 298
291 292 292 293 293 296 297 297 298 301 303 309 306 308 304 298 299 298 302 300 297 297 297 297 301 296 294 294 296 296 297 296 297 300 301 303 303 300 301 301 304 301 299 298 297
290 290 291 291 291 293 298 298 299 299 302 303 304 305 309 308 301 300 301 300 298 299 300 301 304 297 296 294 294 294 297 298 299 298 301 304 304 303 302 301 301 303 302 300 297
286 290 290 293 290 287 290 292 293 297 301 300 303 305 305 305 309 309 307 303 300 302 306 302 305 303 303 297 292 292 295 298 299 300 300 303 303 299 301 303 302 303 303 300 298
289 288 285 292 289 291 290 290 293 292 294 299 302 301 302 303 306 308 306 306 299 300 307 305 306 307 311 306 298 297 293 297 300 300 302 303 303 304 303 302 302 302 300 300 300
284 285 286 287 288 286 288 291 292 292 293 293 297 296 294 300 303 305 305 306 301 301 304 307 309 308 307 305 298 301 297 296 299 301 300 303 301 301 300 302 301 300 299 298 299
287 283 282 285 287 288 288 289 290 291 291 290 291 290 292 294 295 299 296 301 305 297 301 301 307 306 311 309 310 307 301 300 299 298 299 299 299 298 298 298 298 297 297 297 296
288 288 287 286 283 285 285 288 289 290 290 292 291 290 289 292 291 292 294 295 296 298 301 302 304 307 310 307 307 306 306 304 299 296 298 299 299 299 299 299 297 295 294 295 294

GFSSW_925_thetae_282.txt.gz
Theta_e
308 307 305 305 307 308 307 305 304 301 300 300 300 299 299 298 298 300 300 300 300 301 304 301 306 305 304 304 304 313 321 328 330 327 329 320 320 314 312 318 313 312 313 306 305
306 308 310 311 312 313 310 308 306 302 300 300 301 299 298 298 301 303 300 299 302 303 300 305 305 302 301 303 304 315 318 324 322 322 321 314 312 315 311 310 311 308 304 303 303
312 313 313 313 313 314 314 305 299 299 300 300 300 300 298 298 299 298 301 301 302 301 300 306 304 302 302 303 305 310 318 316 317 312 310 310 310 309 308 311 310 311 308 300 300
313 313 313 313 313 315 315 307 302 300 298 300 302 299 299 300 297 300 299 299 300 300 301 305 305 304 303 306 308 312 313 316 317 309 307 308 308 308 306 312 310 307 304 300 301
313 313 313 313 313 314 314 310 305 304 302 301 303 300 300 297 296 299 299 299 300 300 303 304 305 305 310 310 311 313 312 311 311 307 305 305 306 307 306 306 305 304 302 301 302
313 313 312 312 312 313 313 313 309 305 305 304 306 302 297 294 297 298 298 299 300 301 302 303 304 306 307 307 310 308 309 309 307 306 303 304 305 303 308 307 305 302 302 301 302
311 311 310 310 312 312 312 312 308 302 304 304 305 304 297 294 297 297 298 299 300 300 300 302 303 303 306 309 304 304 307 307 307 307 305 301 307 303 308 307 305 304 302 301 301
308 308 308 307 310 311 312 312 308 298 297 299 305 303 293 296 297 297 297 299 299 299 300 301 301 302 304 304 304 305 305 310 309 304 304 306 310 309 305 303 306 305 299 299 300
303 304 305 305 307 310 311 311 307 298 299 301 303 296 294 296 296 297 297 298 299 298 299 299 301 302 302 306 308 305 308 307 308 303 302 304 308 309 300 302 301 300 300 300 300
301 301 302 303 303 308 310 311 303 299 300 304 296 295 296 296 296 297 297 299 298 297 298 299 298 300 300 306 307 308 305 304 306 305 301 301 302 305 305 301 299 298 296 296 300
297 298 299 299 301 305 308 308 306 305 296 296 297 295 296 296 297 296 297 297 297 297 297 298 299 299 301 305 302 303 304 305 304 302 302 301 302 303 304 300 299 300 299 297 298
297 297 297 297 297 301 308 302 298 298 302 301 301 297 297 297 296 294 297 297 296 296 295 296 297 298 299 301 302 303 303 303 301 300 300 299 299 300 300 301 300 302 301 300 300
297 297 297 297 299 303 300 301 300 299 300 304 301 302 299 296 297 296 296 295 296 294 294 295 296 295 298 297 299 298 303 302 301 299 298 298 300 299 299 299 300 300 300 301 300
296 296 296 296 297 294 302 299 299 299 309 313 302 299 295 295 296 295 296 296 295 296 295 295 294 297 295 296 297 299 296 298 298 299 297 298 298 300 301 302 299 299 299 299 299
296 297 297 295 294 293 297 297 299 301 313 305 297 296 295 297 296 296 296 297 296 295 295 297 295 296 297 297 295 296 296 296 299 298 299 298 298 300 300 301 301 301 299 297 297
295 295 295 296 294 293 295 293 300 309 311 305 295 295 295 296 296 295 296 297 296 296 296 296 295 295 296 296 296 296 299 299 297 296 296 296 296 301 298 299 302 304 303 303 300
293 294 292 292 293 293 293 296 306 305 300 302 296 296 296 295 296 296 297 297 296 297 298 297 296 295 295 296 297 297 297 298 295 292 299 297 295 301 299 300 299 300 300 300 299
292 291 290 290 292 293 292 300 303 298 301 298 296 296 297 295 295 296 296 297 296 296 296 298 299 296 294 296 298 297 297 299 297 298 299 298 299 299 298 298 298 299 299 298 299
290 290 291 291 293 292 292 297 297 298 302 305 297 297 290 296 296 296 295 295 297 296 300 297 298 295 295 295 297 298 299 297 299 293 300 302 301 300 301 301 300 300 299 299 299
289 291 290 291 293 293 293 294 293 297 299 300 303 300 293 293 296 296 296 296 297 296 298 300 300 295 294 294 294 296 297 299 296 295 298 300 300 301 302 301 303 301 300 299 298
289 289 289 291 290 290 291 294 292 295 293 297 301 304 306 302 297 296 299 298 296 296 298 300 303 297 295 295 297 297 298 296 297 299 301 299 300 297 300 300 300 301 300 299 298
288 285 288 289 285 277 281 291 292 292 292 292 298 300 301 303 306 303 301 299 296 297 298 299 305 302 297 294 293 294 296 297 300 298 299 302 302 301 301 299 301 300 298 298 298
285 283 289 290 283 287 283 289 291 292 291 292 294 295 293 296 302 305 304 303 300 300 301 301 302 301 303 298 292 293 295 297 298 299 300 301 302 299 299 299 299 298 296 296 296
288 284 281 282 286 288 286 285 288 291 292 291 291 291 292 293 298 302 302 302 298 300 305 304 306 299 307 305 298 295 295 297 300 301 302 301 302 301 298 298 297 296 294 295 295
286 284 282 286 281 279 285 287 288 288 291 290 290 291 290 290 293 292 292 293 297 300 302 306 310 307 307 304 299 301 296 298 299 300 301 301 299 300 298 298 295 295 295 295 294
288 288 287 280 283 287 282 285 288 288 288 288 290 291 290 289 291 290 290 291 293 295 295 301 308 306 309 308 306 305 298 298 299 299 300 300 299 298 298 296 295 292 292 292 292
288 288 288 287 282 282 286 287 288 288 288 289 289 290 289 289 290 289 290 290 292 292 294 298 303 306 309 307 309 309 307 304 301 303 302 303 304 299 297 295 290 290 290 289 288

GFSSW_925_thetae_285.txt.gz
Theta_e
314 314 315 316 316 316 315 313 311 304 302 302 301 301 302 300 301 300 302 300 300 301 305 301 305 306 304 303 304 312 323 330 333 330 332 320 322 316 313 320 314 314 315 308 304
314 314 315 315 315 314 314 315 312 308 303 302 301 304 302 299 301 303 300 299 300 302 301 304 304 301 301 302 304 313 318 325 324 326 326 319 316 317 312 311 313 310 304 303 304
313 313 312 312 314 315 315 316 315 311 308 306 305 304 299 298 297 297 301 303 302 303 301 304 304 302 302 301 303 309 316 316 317 318 315 313 310 311 310 312 313 314 311 302 302
313 313 311 311 313 315 315 316 315 313 312 311 307 307 298 299 297 300 301 301 302 302 300 305 303 302 302 303 303 307 311 313 316 312 309 310 309 310 307 316 311 310 307 302 302
310 310 309 308 310 312 312 312 313 312 306 310 308 306 301 296 295 299 299 299 300 300 302 304 304 304 303 305 307 310 307 310 311 310 308 305 307 309 307 308 307 305 303 303 303
306 306 306 307 308 308 310 311 311 311 305 303 308 305 297 294 297 298 298 298 300 301 301 303 304 304 306 308 309 308 308 307 307 308 305 305 306 304 307 308 306 305 305 304 303
303 303 304 304 305 305 307 311 311 310 300 299 306 305 297 294 297 297 298 298 299 301 299 302 303 303 305 307 305 304 305 306 306 307 307 302 306 303 307 308 307 306 306 304 303
300 300 300 301 301 302 304 310 311 309 299 298 306 304 293 296 297 296 297 298 298 299 300 300 301 301 303 304 305 304 305 308 308 306 306 307 312 310 307 304 306 305 304 301 302
299 299 299 299 299 300 300 310 311 304 300 303 305 296 294 295 296 296 297 297 298 298 298 299 300 301 301 305 307 305 307 306 307 305 302 304 308 308 302 302 303 302 302 301 302
298 298 298 298 299 299 301 310 306 301 302 306 296 295 296 296 296 296 296 298 297 296 297 298 297 299 299 305 305 305 305 304 306 305 301 302 303 303 305 303 303 303 302 299 300
298 298 297 297 298 302 307 308 304 305 297 296 298 296 297 297 296 295 296 297 296 296 296 296 298 299 300 305 302 303 304 304 305 302 303 302 303 303 304 301 301 303 303 303 302
297 297 297 298 297 296 304 302 297 296 298 301 304 306 306 298 298 294 296 297 296 296 294 296 298 298 297 300 302 303 304 303 301 300 300 300 300 300 300 301 301 302 302 302 302
296 296 296 296 296 295 297 296 295 298 301 304 302 305 305 298 304 302 296 295 296 294 295 297 297 295 298 298 301 300 303 302 302 299 297 297 299 300 298 299 299 300 301 301 301
294 294 295 294 294 293 297 295 293 296 305 306 304 301 294 296 299 295 296 296 295 297 294 296 294 295 296 297 298 300 297 300 300 300 298 296 297 299 300 301 299 299 300 300 300
293 292 292 293 292 292 293 292 292 299 301 298 301 296 294 299 296 295 296 296 296 295 296 298 294 295 296 297 297 298 294 296 297 296 298 297 297 298 299 299 299 299 299 298 296
292 291 291 291 292 292 293 293 297 305 304 300 296 295 295 295 296 295 296 296 295 295 295 296 294 295 295 295 295 295 298 298 296 296 296 296 296 302 299 298 299 301 302 302 301
292 291 289 290 291 291 292 292 302 303 296 295 296 295 295 295 295 295 296 296 296 297 298 297 296 295 295 297 297 297 297 299 297 295 300 295 295 301 299 298 298 298 298 298 297
291 289 289 291 293 292 291 292 298 288 292 299 297 296 296 295 295 295 295 295 295 296 296 299 299 296 294 297 298 297 298 300 298 298 299 296 298 299 297 296 297 296 298 298 297
289 288 289 291 292 291 291 291 287 295 294 294 296 298 291 295 296 296 294 294 295 295 298 296 298 295 295 295 297 298 299 297 299 292 300 301 300 299 300 300 299 299 299 299 299
289 288 288 290 289 291 286 291 291 292 292 292 295 298 298 298 297 294 295 295 296 295 295 298 299 295 294 294 294 297 297 299 297 296 298 299 298 301 302 302 300 299 297 297 297
288 286 288 288 290 283 281 281 290 289 291 292 291 293 296 297 298 299 298 296 294 295 295 297 302 296 295 295 297 297 298 296 298 300 302 300 301 296 299 300 298 296 296 295 294
287 282 288 288 282 269 280 288 289 290 291 291 293 291 292 292 294 296 299 301 302 297 296 296 301 298 294 293 293 294 298 297 300 298 298 300 301 298 299 297 296 295 294 294 293
287 283 288 289 280 277 280 285 287 289 289 290 290 290 290 291 291 291 292 291 292 295 304 299 302 294 305 298 293 292 295 297 298 299 299 301 301 296 296 295 293 294 295 295 294
287 283 281 280 281 287 283 284 286 287 288 290 290 290 290 289 289 292 290 290 290 291 297 298 304 303 306 303 294 294 294 296 300 303 302 301 301 299 297 295 294 294 293 293 292
280 282 281 283 284 278 282 286 287 287 287 289 287 290 289 287 289 289 289 288 288 293 291 293 298 307 306 302 297 294 294 296 298 300 302 304 300 298 296 296 293 292 291 290 290
285 286 287 283 278 283 280 284 287 287 285 286 286 288 287 288 289 288 289 288 288 288 290 292 295 298 304 305 308 310 305 296 297 298 299 299 299 297 295 292 291 290 290 289 288
287 287 285 285 281 283 282 286 287 287 288 287 287 287 287 288 287 287 288 288 289 289 289 291 296 294 297 299 304 308 309 298 300 300 300 301 301 297 296 292 290 289 288 288 287

GFSSW_925_thetae_288.txt.gz
Theta_e
313 313 313 313 313 314 314 314 314 313 306 303 300 301 306 306 302 304 304 302 301 301 306 304 306 306 305 308 309 316 325 331 334 336 335 329 333 332 324 330 324 323 326 316 309
313 312 311 311 311 312 314 314 315 316 314 312 310 306 304 305 306 304 301 300 300 300 305 304 305 305 307 307 309 314 316 318 323 328 332 332 331 332 327 326 324 324 320 309 310
310 310 309 309 309 311 312 313 314 314 315 314 313 309 304 301 301 300 301 300 301 303 301 304 306 306 306 306 308 311 313 315 317 321 325 328 327 324 325 330 327 329 327 315 311
307 307 307 307 308 308 310 311 313 313 313 311 308 310 303 301 301 300 302 305 303 303 303 305 305 306 307 307 306 307 310 311 314 317 319 320 321 319 321 326 327 323 322 318 313
304 304 304 304 305 306 306 308 309 311 311 308 306 308 303 299 300 299 300 302 304 302 302 304 305 306 307 306 307 307 307 308 311 312 314 314 315 317 317 316 316 315 313 315 315
301 301 301 301 302 302 303 304 309 311 311 307 308 307 300 300 299 298 299 300 303 302 301 303 304 306 307 309 310 310 310 309 310 311 311 311 312 313 313 313 313 314 314 314 314
300 300 300 300 301 301 301 301 306 311 311 302 307 306 299 303 299 297 298 298 299 301 302 302 304 307 308 308 309 309 310 311 311 312 312 310 313 313 311 312 314 315 314 313 313
299 299 299 300 300 300 302 301 299 310 308 300 306 305 301 298 297 296 297 297 298 300 300 300 303 305 306 307 308 308 308 311 311 311 311 312 316 317 314 314 314 314 314 314 313
298 298 298 299 300 300 299 303 308 305 302 305 306 301 302 296 295 296 297 298 298 298 299 298 302 305 305 307 308 309 308 309 309 310 308 311 315 314 309 310 312 312 312 311 311
297 297 297 297 297 299 301 308 305 303 305 307 295 299 300 300 296 296 296 297 299 299 300 301 303 304 305 307 306 306 308 307 307 309 307 309 310 311 311 309 310 311 311 311 310
295 295 295 296 295 298 301 305 303 306 301 303 304 302 300 297 296 296 296 297 298 299 300 300 302 303 303 305 306 306 306 306 306 306 307 309 310 310 309 308 308 308 308 308 309
294 293 293 293 295 293 299 299 295 295 299 300 301 303 304 307 308 299 297 300 299 301 300 299 302 304 303 304 305 305 305 305 305 305 304 306 306 306 306 306 306 306 307 307 308
293 293 293 292 294 291 296 295 293 293 299 303 303 304 306 307 308 309 298 300 303 301 300 306 309 302 301 302 304 304 305 305 304 304 304 303 305 305 306 306 306 306 306 306 306
293 293 292 291 291 292 293 293 293 294 303 304 305 303 298 305 308 307 298 303 299 305 302 301 306 301 300 301 302 303 304 304 304 304 303 301 303 305 306 305 303 304 305 305 305
293 293 291 292 292 292 292 292 293 297 301 301 303 296 296 301 297 297 297 300 306 299 300 304 299 299 303 303 301 303 302 303 304 304 304 302 300 304 303 304 305 306 306 306 306
292 292 290 291 292 292 292 292 295 304 302 302 298 295 295 299 298 297 297 297 298 300 298 302 296 298 300 297 301 299 300 300 300 301 303 303 301 306 307 306 306 305 305 306 306
291 291 289 291 292 290 290 294 299 301 298 294 293 292 294 298 299 298 297 299 301 303 305 302 299 297 297 298 298 301 301 304 305 305 307 303 302 305 306 305 304 306 306 304 305
287 288 289 290 288 289 292 295 295 292 293 291 291 292 296 298 297 297 298 299 299 298 302 306 307 299 298 301 301 300 302 307 311 310 308 298 302 305 304 305 304 303 303 304 305
287 287 288 289 288 290 293 293 292 288 289 291 292 291 292 293 295 298 299 299 299 299 302 304 303 297 296 298 301 300 301 302 305 300 305 305 303 304 305 305 305 304 304 304 302
287 288 288 288 288 291 292 289 288 288 288 290 290 291 293 293 292 293 295 299 294 296 297 299 304 297 296 296 298 300 301 301 303 308 308 307 307 308 307 306 302 301 300 300 299
288 290 288 288 288 292 289 288 289 288 288 289 290 293 290 291 291 291 295 297 292 292 295 300 300 300 297 299 300 299 301 301 305 304 308 308 309 302 303 302 301 299 299 299 298
287 289 288 288 290 283 289 287 288 287 288 289 290 289 289 291 290 292 291 292 291 291 294 299 301 301 302 297 295 299 301 302 304 305 302 305 307 302 300 300 301 300 299 297 297
287 287 288 287 288 288 287 287 287 287 288 288 289 288 288 290 289 290 289 290 289 290 293 294 300 304 302 300 296 299 299 299 302 302 311 308 307 300 299 300 299 299 297 296 295
288 288 288 286 286 287 287 287 287 287 288 288 288 288 289 288 288 288 289 289 289 289 291 291 294 298 300 301 301 300 299 299 302 305 305 304 306 301 300 300 298 296 295 294 293
287 287 285 287 287 287 285 287 287 287 288 288 287 287 288 288 287 286 287 289 288 288 288 290 291 293 293 294 297 304 300 299 301 302 305 303 303 303 300 298 295 294 294 293 292
288 287 286 287 284 286 285 285 286 286 287 287 288 288 287 287 288 288 288 289 288 288 288 290 290 291 295 293 297 298 300 306 304 300 301 305 307 298 296 295 293 292 292 291 290
286 286 287 286 286 286 286 285 285 286 287 287 287 288 288 287 288 288 289 288 288 288 289 288 290 292 293 293 294 298 301 301 306 304 304 302 301 300 295 292 291 290 289 288 286